Change the Weather History Date:

Sunday, April 20, 2014

  Actual Average Record
Temperature  
Mean Temperature 56 °F -  
Max Temperature 75 °F 61 °F 80 °F (2005)
Min Temperature 39 °F 41 °F 30 °F (1997)
Degree Days  
Heating Degree Days 9    
Growing Degree Days 6 (Base 50)    
Moisture  
Dew Point 35 °F    
Average Humidity 46    
Maximum Humidity 82    
Minimum Humidity 26    
Precipitation  
Precipitation 0.00 in - - ()
Sea Level Pressure  
Sea Level Pressure 30.22 in    
Wind  
Wind Speed 5 mph (ESE)    
Max Wind Speed 13 mph    
Max Gust Speed 20 mph    
Visibility 10 miles    
Events      
Averages and records for this station are not official NWS values.
T = Trace of Precipitation, MM = Missing Value Source: NWS Daily Summary

Daily Weather History Graph

Daily Weather History Graph

Search for Another Location

Airport or City:

Trip Planner

Search our weather history database for the weather conditions in past years. The results will help you decide how hot, cold, wet, or windy it might be!

Date:

Astronomy

Apr. 20, 2014 Rise Set
Actual Time 6:47 AM EDT 8:16 PM EDT
Civil Twilight 6:18 AM EDT 8:44 PM EDT
Nautical Twilight 5:44 AM EDT 9:18 PM EDT
Astronomical Twilight 5:08 AM EDT 9:55 PM EDT
Moon 12:54 AM EDT (4/20) 11:06 AM EDT (4/20)
Length of Visible Light 14h 25m
Length of Day
13h 28m
Waning Gibbous, 69% of the Moon is Illuminated
Apr 20
Waning Gibbous
Apr 22
Last Quarter
Apr 29
New
May 6
First Quarter
May 14
Full

Hourly Weather History & Observations

Time (EDT) Temp. Windchill Dew Point Humidity Pressure Visibility Wind Dir Wind Speed Gust Speed Precip Events Conditions
12:53 AM 44.1 °F 40.8 °F 34.0 °F 68% 30.29 in 10.0 mi North 5.8 mph - N/A   Clear
1:53 AM 44.1 °F 41.5 °F 33.1 °F 65% 30.28 in 10.0 mi NNE 4.6 mph - N/A   Clear
2:53 AM 42.1 °F 38.4 °F 30.9 °F 65% 30.27 in 10.0 mi ENE 5.8 mph - N/A   Clear
3:53 AM 42.1 °F 39.2 °F 30.0 °F 62% 30.27 in 10.0 mi NNE 4.6 mph - N/A   Clear
4:53 AM 42.1 °F 39.2 °F 30.0 °F 62% 30.28 in 10.0 mi North 4.6 mph - N/A   Clear
5:53 AM 42.1 °F 39.2 °F 30.0 °F 62% 30.29 in 10.0 mi North 4.6 mph - N/A   Clear
6:53 AM 39.0 °F 35.7 °F 30.0 °F 70% 30.30 in 10.0 mi North 4.6 mph - N/A   Clear
7:53 AM 42.1 °F - 37.0 °F 82% 30.30 in 10.0 mi Calm Calm - N/A   Clear
8:53 AM 50.0 °F - 33.1 °F 52% 30.30 in 10.0 mi Calm Calm - N/A   Clear
9:53 AM 55.9 °F - 32.0 °F 40% 30.29 in 10.0 mi ESE 5.8 mph - N/A   Clear
10:53 AM 60.1 °F - 32.0 °F 35% 30.28 in 10.0 mi South 4.6 mph - N/A   Clear
11:53 AM 64.9 °F - 35.1 °F 33% 30.27 in 10.0 mi SSE 5.8 mph - N/A   Clear
12:53 PM 66.9 °F - 37.0 °F 33% 30.25 in 10.0 mi SSE 8.1 mph - N/A   Clear
1:53 PM 69.1 °F - 37.9 °F 32% 30.23 in 10.0 mi SE 6.9 mph - N/A   Clear
2:53 PM 71.1 °F - 39.0 °F 31% 30.22 in 10.0 mi South 9.2 mph 19.6 mph N/A   Clear
3:53 PM 73.0 °F - 39.9 °F 30% 30.19 in 10.0 mi SSW 12.7 mph 16.1 mph N/A   Clear
4:53 PM 73.9 °F - 39.0 °F 28% 30.17 in 10.0 mi SSW 8.1 mph - N/A   Clear
5:53 PM 73.9 °F - 37.9 °F 27% 30.16 in 10.0 mi South 5.8 mph - N/A   Clear
6:53 PM 73.0 °F - 37.0 °F 27% 30.14 in 10.0 mi Calm Calm - N/A   Clear
7:53 PM 70.0 °F - 33.1 °F 26% 30.13 in 10.0 mi SSW 3.5 mph - N/A   Clear
8:53 PM 66.9 °F - 34.0 °F 30% 30.13 in 10.0 mi Calm Calm - N/A   Clear
9:53 PM 61.0 °F - 37.9 °F 42% 30.13 in 10.0 mi East 3.5 mph - N/A   Clear
10:53 PM 59.0 °F - 37.0 °F 44% 30.12 in 10.0 mi Calm Calm - N/A   Clear
11:53 PM 57.0 °F - 39.0 °F 51% 30.11 in 10.0 mi Calm Calm - N/A   Clear